FLOCK 4V-7 (46291 NORAD) Tracking and Keplerian Element Data

This shows tracking and keplerian element data for the satellite.

Feedback or suggestion? Click here.




ElementValue
Catalog46291
NameFLOCK 4V-7
Epoch Orbit314
Epoch Day268.81363979
Epoch Year2020
RAAN341.5436
Inclination97.5178
Eccentricity9.12E-05
Argument of Perigee298.1023
Mean Anonmoly62.0114
Mean Motion15.10010746
Decay Rate5.41E-06
L11 46291U 20061V 20268.81363979 .00000541 00000-0 37124-4 0 9996
L22 46291 97.5178 341.5436 0000912 298.1023 62.0114 15.10010746 3141

Live tracking and technical data element details for FLOCK 4V-7 (NORAD 46291). FLOCK 4V-7 can be tracked NOW for your location showing map with azimuth and elevation plus other details from your city location.

Track the satellite on the map from your city or location and see movement details for azimuth, elevation, latitude, longitude, range, height, and movement on the map or in text.







IsCatalogInMostPopularTable: catalog: 46291, numindb: 3
Update: records affected: 1



GetName: 46291 FLOCK 4V-7

Hit Count: updated at: Sat, 26 Sep 2020 14:32:57 GMT